Weather in Saidu Sharif

Pakistan     34°44′44″N   72°21′20″E
temp.,
°C
wind,
m/s
gust,
m/s
humid.,
%
clouds,
%
prec.,
mm/h
press.,
hPa
HPBL,
m
8 march, mon
mon823:00+10ne33631 0.8 101734
02:00+10nne335767 0.1 101848
05:00+9ne447169 0.7 101777
08:00+11ne346110 0.0 1019163
11:00+17nne22395 0.0 1019782
14:00+19s24320 0.0 10172609
17:00+19sse123427 0.0 10171557
20:00+12nne23505 0.0 102024
9 march, tue
tue923:00+11ne34503 0.0 102145
02:00+10nne44500 0.0 102047
05:00+10ne44530 0.1 102042
08:00+12ne34510 0.0 1020138
11:00+19ne12320 0.1 1020914
14:00+20ssw233137 0.0 10182494
17:00+20sse023246 0.0 10172566
20:00+13nne33495 0.0 101926
10 march, wed
wed1023:00+13ne445252 0.3 101961
02:00+11nne336099 0.7 101839
05:00+11ne3460100 1.5 101737
08:00+13ne3354100 0.0 101894
11:00+19e1134100 0.0 1018773
14:00+21s443074 0.0 10162555
17:00+20s123787 0.0 1014819
20:00+14nne234698 0.0 101625
11 march, thu
thu1123:00+14nne445090 0.1 101771
02:00+12ne4461100 0.3 101576
05:00+11nne2371100 1.6 101446
08:00+12ne2370100 1.5 1015134
11:00+16nne3353100 2.3 1016598
14:00+15ne4560100 0.8 1014633
17:00+15n2363100 1.6 1013274
20:00+11n4584100 3.0 1016184
12 march, fri
fri1223:00+10ne4578100 3.3 1017113
02:00+11ne5674100 0.1 1016141
05:00+10ne3379100 0.3 101568
08:00+10ne3484100 1.8 1017178
11:00+10ne5588100 8.1 1018311
14:00+12ne5578100 1.8 1017416
17:00+13ne4568100 1.8 1016367
20:00+10ne447191 0.4 101943